Regional Weather Roundup
Issued by NWS

Home | Current Version | Previous Version | Graphics & Text | Print | Product List | Glossary Off
Versions: 1 2 3 4 5 6 7 8 9 10 11 12 13 14 15 16 17 18 19 20 21 22 23 24 25 26 27 28 29 30 31 32 33 34 35 36 37 38 39 40 41 42 43 44 45 46 47 48 49 50

000
ASUS43 KDMX 271406
RWRIA

WEATHER ROUNDUP FOR IOWA
NATIONAL WEATHER SERVICE DES MOINES IA
900 AM CDT MON MAR 27 2017

NOTE: "FAIR" INDICATES FEW OR NO CLOUDS BELOW 12,000 FEET WITH NO
SIGNIFICANT WEATHER AND/OR OBSTRUCTIONS TO VISIBILITY.

* - THESE STATIONS ARE NOT NWS STATIONS...THUS NOT UNDER NWS
QUALITY CONTROL.  THEY ALSO DO NOT REPORT WEATHER SUCH
AS PRECIPITATION OR FOG.

IAZ001>003-012>014-020>022-031>034-043>046-271500-
   NORTHWEST IOWA

CITY           SKY/WX    TMP DP  RH WIND       PRES   REMARKS
CARROLL *      CLOUDY    41  41 100 N5        29.95R FOG
CHEROKEE *     CLOUDY    42  40  95 N3        29.97R
LE MARS *      CLOUDY    43  41  93 N3        29.98R
ORANGE CITY *  CLOUDY    41  37  87 N5        29.97R
SHELDON *      CLOUDY    39 N/A N/A CALM      29.96R
SIOUX CITY     CLOUDY    44  41  89 N7        29.98R
SPENCER        CLOUDY    40  38  93 N7        29.96S
STORM LAKE *   CLOUDY    41  39  93 N8        29.95R
$$

IAZ055>058-069>071-079>083-090>094-271500-
   SOUTHWEST IOWA

CITY           SKY/WX    TMP DP  RH WIND       PRES   REMARKS
ATLANTIC *     CLOUDY    43  41  93 NE7       29.94S
AUDUBON *      CLOUDY    43  39  87 NE8       29.95R
CLARINDA *     PTSUNNY   45  43  93 NE12      29.95R
COUNCIL BLFS * CLOUDY    45  45 100 NE7       29.95R
CRESTON *      CLOUDY    41  41 100 NE13      29.92F
HARLAN  *      CLOUDY    43  43 100 N5        29.98R
LAMONI         CLOUDY    45  44  97 NE12      29.90S
RED OAK *      CLOUDY    43  41  93 NE14      29.95R
SHENANDOAH *   CLOUDY    46  43  87 NE12      29.95R
$$

IAZ047>049-059>061-072>074-084-271500-
   CENTRAL IOWA

CITY           SKY/WX    TMP DP  RH WIND       PRES   REMARKS
AMES           CLOUDY    42  41  96 NE8       29.93S
ANKENY *       CLOUDY    43  41  93 NE10      29.94F
BOONE *        CLOUDY    41  41 100 N10       29.93S
CHARITON *     CLOUDY    43  43 100 N9G16     29.91S FOG
DES MOINES     CLOUDY    44  40  85 NE5       29.93S
GRINNELL*      CLOUDY    43  42  95 N9        29.94S
MARSHALLTOWN   CLOUDY    43  42  97 N7        29.93R FOG
NEWTON *       FOG       43  43 100 NE10      29.92F VSB 3/4
PELLA *        CLOUDY    44  44  99 NE3       29.94S FOG
PERRY *        CLOUDY    42  40  93 N6        29.94S
$$

IAZ004>006-015-016-023>025-035-036-271500-
   NORTH CENTRAL IOWA

CITY           SKY/WX    TMP DP  RH WIND       PRES   REMARKS
ALGONA *       CLOUDY    41  39  93 N7        29.96R
CLARION *      CLOUDY    41  41 100 NE10      29.94S
ESTHERVILLE    CLOUDY    40  39  97 N8        29.95S WCI  34
FORT DODGE *   CLOUDY    41  37  87 N7        29.95S
MASON CITY     CLOUDY    40  38  93 N6        29.95S
FOREST CITY *  CLOUDY    37  37 100 N5        29.94S WCI  34
WEBSTER CITY * CLOUDY    41  39  93 N10       29.92S
IOWA FALLS *   CLOUDY    42  40  93 NE7       29.93F
$$

IAZ007>011-017>019-026>030-037>042-050>054-066-271500-
   NORTHEAST IOWA

CITY           SKY/WX    TMP DP  RH WIND       PRES   REMARKS
CEDAR RAPIDS   CLOUDY    44  44 100 N5        29.91F
CHARLES CITY * CLOUDY    41  41 100 N8        29.94F FOG
CLINTON *      CLOUDY    46  44  93 NE7       29.93S
DECORAH *      CLOUDY    39  39 100 N7        29.92F FOG     WCI  34
DUBUQUE        CLOUDY    42  40  92 NE8       29.92F
MONTICELLO *   CLOUDY    45  41  87 NE5       29.93R
OELWEIN *      CLOUDY    41  41 100 N8        29.93S
WATERLOO       CLOUDY    42  40  92 N7        29.93S
$$

IAZ064-065-067-068-078-271500-
   EAST CENTRAL IOWA

CITY           SKY/WX    TMP DP  RH WIND       PRES   REMARKS
DAVENPORT      CLOUDY    47  45  93 NE5       29.93S
IOWA CITY      CLOUDY    48  44  86 N5        29.94S
MUSCATINE *    CLOUDY    48  46  93 NE5       29.94R
QUAD CITIES    CLOUDY    49  45  86 NE6       29.92S FOG
$$

IAZ062-063-075>077-085>089-095>099-271500-
   SOUTHEAST IOWA

CITY           SKY/WX    TMP DP  RH WIND       PRES   REMARKS
BURLINGTON     CLOUDY    48  47  96 NE6       29.92R
FAIRFIELD *    FOG       46  46 100 N9        29.92S VSB<1/4
FORT MADISON * LGT RAIN  48  46  93 CALM      29.93S
KEOKUK *       LGT RAIN  46  46 100 NE6       29.91F
OSKALOOSA *    CLOUDY    44  43  98 NE10      29.92F FOG
OTTUMWA        CLOUDY    45  45 100 N9        29.91F
WASHINGTON *   CLOUDY    46  46 100 N8        29.94S FOG
$$

ABBREVIATIONS USED IN REMARKS
   TC - TEMPERATURES IN CELSIUS
  WCI - WIND CHILL INDEX
   HX - HEAT INDEX
  VSB - VISIBILITY
$$





USA.gov is the U.S. government's official web portal to all federal, state and local government web resources and services.